This is the latest recevied weather packets stored in our database for station/object KE5WTH-14. If no packets are shown the sender has not sent any weather packets the latest 10 day(s).
| Time | Temp. | Humidity | Pressure | Rain* | Wind** | Luminosity | Snow |
|---|---|---|---|---|---|---|---|
| 1778182240 | 22.78° C | 48% | 1016.7 hPa | 0 mm | - | 899 W/m² | - |
| 1778182082 | 22.78° C | 49% | 1016.6 hPa | 0 mm | - | 1018 W/m² | - |
| 1778182052 | 22.78° C | 49% | 1016.6 hPa | 0 mm | - | 1018 W/m² | - |
| 1778182021 | 22.78° C | 49% | 1016.7 hPa | 0 mm | - | 1001 W/m² | - |
| 1778181987 | 22.78° C | 49% | 1016.7 hPa | 0 mm | - | 995 W/m² | - |
| 1778181959 | 22.22° C | 51% | 1016.7 hPa | 0 mm | - | 995 W/m² | - |
| 1778181927 | 22.22° C | 48% | 1016.8 hPa | 0 mm | - | 993 W/m² | - |
| 1778181902 | 22.78° C | 48% | 1016.8 hPa | 0 mm | - | 993 W/m² | - |
| 1778181870 | 22.22° C | 52% | 1016.9 hPa | 0 mm | - | 993 W/m² | - |
| 1778181712 | 22.22° C | 48% | 1016.9 hPa | 0 mm | - | 993 W/m² | - |
| 1778181555 | 22.78° C | 48% | 1017.1 hPa | 0 mm | - | 992 W/m² | - |
| 1778181523 | 22.78° C | 52% | 1017.1 hPa | 0 mm | - | 997 W/m² | - |
| 1778181490 | 22.22° C | 49% | 1017.1 hPa | 0 mm | - | 1004 W/m² | - |
| 1778181459 | 22.22° C | 49% | 1017.1 hPa | 0 mm | - | 1004 W/m² | - |
| 1778181272 | 22.22° C | 50% | 1017 hPa | 0 mm | - | 1004 W/m² | - |
| 1778181151 | 22.22° C | 49% | 1017.1 hPa | 0 mm | - | 992 W/m² | - |
| 1778181090 | 22.22° C | 49% | 1017.1 hPa | 0 mm | - | 1002 W/m² | - |
| 1778181013 | 22.22° C | 48% | 1017.1 hPa | 0 mm | - | 1002 W/m² | - |
| 1778180951 | 22.22° C | 48% | 1017.1 hPa | 0 mm | - | 1004 W/m² | - |
| 1778180887 | 22.22° C | 48% | 1017.1 hPa | 0 mm | - | 1006 W/m² | - |
| 1778180826 | 22.22° C | 47% | 1017.1 hPa | 0 mm | - | 877 W/m² | - |
| 1778180766 | 22.22° C | 49% | 1017.1 hPa | 0 mm | - | 1009 W/m² | - |
| 1778180705 | 22.78° C | 47% | 1017.1 hPa | 0 mm | - | 999 W/m² | - |
| 1778180646 | 22.78° C | 49% | 1017.1 hPa | 0 mm | - | 983 W/m² | - |
| 1778180586 | 22.78° C | 48% | 1017.2 hPa | 0 mm | - | 992 W/m² | - |
* Rain latest hour (hover to see other rain measurements)
** Current wind speed in m/s (hover to see current wind gust speed)